Location: Dulzura
(32.6442°N, 116.7814°W)
Time: 14:39:20
(UTC+00:00)

Hubble Space Telescope - Pass Details

Date: 08 December 2022
Orbit: 529 x 532 km, 28.5° (Epoch: 26 January)

Event Time Altitude Azimuth Distance (km) Brightness Sun altitude
Exits shadow 12:58:14 20° 210° (SSW) 1,241 2.4 -20.3°
Maximum altitude 13:00:07 30° 166° (SSE) 961 2.3 -19.9°
Drops below altitude 10° 13:03:43 10° 104° (ESE) 1,762 4.7 -19.1°
Sets 13:06:09 0° 93° (E) 2,652 5.8 -18.6°
